GW0480 Weather Reports


time (UTC)temp
F
wind
direction
speed
knots
gust
knots
rain 1hr
in
rain 24hr
in
rain mn
in
humidity
%
barometer
mb
20260507021045 57 20 0.9 0.9 0.00 0.05 0.05 99 1004.7
20260507020544 57 20 0.9 0.9 0.00 0.05 0.05 99 1004.6
20260507020039 57 34 0.0 0.9 0.00 0.05 0.05 99 1004.6
20260507015538 57 69 0.0 0.9 0.00 0.05 0.05 99 1004.6
20260507015035 57 31 0.0 0.0 0.00 0.05 0.05 99 1004.9
20260507014532 57 17 0.0 0.0 0.00 0.05 0.05 99 1004.8
20260507014027 57 33 0.0 0.0 0.00 0.05 0.05 99 1004.8
20260507013524 57 21 0.0 0.0 0.00 0.05 0.05 99 1004.8
20260507013022 57 37 0.0 0.0 0.00 0.05 0.05 99 1004.8
20260507012519 57 60 0.9 0.9 0.00 0.05 0.05 99 1004.9
20260507012015 57 7 0.9 1.7 0.00 0.05 0.05 99 1005.1
20260507011513 57 31 0.0 0.0 0.00 0.05 0.05 99 1005.1
20260507011008 57 43 0.0 0.0 0.00 0.05 0.05 99 1005.0
20260507010503 57 42 0.0 0.0 0.00 0.05 0.05 99 1005.0
20260507010000 57 50 0.0 0.0 0.00 0.05 0.05 99 1005.2
20260507005457 57 87 0.0 0.9 0.00 0.05 0.05 99 1005.2
20260507004953 57 25 0.0 0.9 0.00 0.05 0.05 99 1005.2
20260507004450 57 77 0.9 1.7 0.00 0.05 0.05 99 1005.2
20260507003948 57 358 1.7 2.6 0.00 0.05 0.05 99 1005.2
20260507003443 57 73 0.9 0.9 0.00 0.05 0.05 99 1005.0
20260507002938 57 57 0.9 1.7 0.00 0.05 0.05 99 1005.1
20260507002435 57 70 0.9 0.9 0.00 0.05 0.05 99 1005.0
20260507001932 57 262 0.9 0.9 0.00 0.05 0.05 99 1004.9
20260507001428 57 60 0.9 0.9 0.00 0.05 0.05 99 1005.1
20260507000926 57 40 0.0 0.0 0.00 0.05 0.05 99 1005.0
20260507000421 57 31 0.0 0.0 0.00 0.05 0.05 99 1005.0
20260506235917 57 45 0.9 0.9 0.00 0.05 0.05 99 1005.1
20260506235415 57 93 0.9 0.9 0.00 0.05 0.05 99 1005.0
20260506234910 57 42 0.0 0.9 0.00 0.05 0.05 99 1004.8
20260506234408 57 358 0.9 1.7 0.00 0.05 0.05 99 1004.8
20260506233906 57 27 0.0 0.0 0.00 0.05 0.05 99 1004.8
20260506233401 57 77 0.0 0.9 0.00 0.05 0.05 99 1004.9
20260506232858 57 26 0.0 0.9 0.00 0.05 0.05 99 1004.9
20260506232354 57 92 1.7 1.7 0.00 0.05 0.05 99 1004.8
20260506231850 57 245 0.9 1.7 0.00 0.05 0.05 99 1005.0
20260506231348 57 28 0.0 0.0 0.00 0.05 0.05 99 1005.0
20260506230846 57 25 0.0 0.9 0.00 0.05 0.05 99 1004.8
20260506230342 57 205 1.7 1.7 0.07 0.05 0.05 99 1004.8
20260506225838 57 96 1.7 1.7 0.07 0.05 0.05 99 1004.9
20260506225336 57 12 0.9 1.7 0.00 0.04 0.04 99 1004.9
20260506224833 57 14 0.0 0.0 0.00 0.04 0.04 99 1004.9
20260506224330 57 36 0.0 0.0 0.00 0.04 0.04 99 1004.9
20260506223826 57 60 0.9 0.9 0.00 0.04 0.04 99 1004.8
20260506223321 58 334 0.9 1.7 0.00 0.04 0.04 99 1004.6
20260506222819 58 74 0.9 0.9 0.00 0.04 0.04 99 1004.7
20260506222314 58 137 2.6 2.6 0.05 0.04 0.04 99 1004.8
20260506221813 58 57 0.0 0.9 0.05 0.04 0.04 99 1004.7
20260506221310 58 50 2.6 2.6 0.00 0.03 0.03 99 1004.8
20260506220807 58 328 0.9 0.9 0.00 0.03 0.03 99 1005.2
20260506220302 58 330 0.9 1.7 0.00 0.03 0.03 98 1005.0
20260506215759 59 24 1.7 1.7 0.00 0.03 0.03 98 1005.2
20260506215255 59 65 2.6 2.6 0.07 0.03 0.03 97 1005.2
20260506214751 59 335 0.9 1.7 0.07 0.03 0.03 97 1005.3
20260506214248 59 12 0.0 0.0 0.00 0.02 0.02 97 1005.1
20260506213746 59 61 0.9 0.9 0.00 0.02 0.02 96 1005.2
20260506213243 60 344 0.0 0.9 0.00 0.02 0.02 95 1005.3
20260506212740 60 314 1.7 1.7 0.00 0.02 0.02 95 1005.2
20260506212236 60 21 0.9 0.9 0.00 0.02 0.02 94 1005.4
20260506211731 60 298 3.5 5.2 0.00 0.02 0.02 94 1005.3
20260506211228 60 250 1.7 2.6 0.00 0.02 0.02 94 1005.4
20260506210725 60 91 1.7 2.6 0.00 0.02 0.02 94 1005.6
20260506210222 60 21 0.0 0.9 0.00 0.02 0.02 95 1005.4
20260506205719 60 29 1.7 1.7 0.00 0.02 0.02 95 1005.6
20260506205214 60 56 0.0 0.9 0.00 0.02 0.02 95 1005.5
20260506204712 60 336 0.9 2.6 0.05 0.02 0.02 95 1005.5
20260506204209 60 293 0.0 0.9 0.05 0.02 0.02 95 1005.7
20260506203707 60 69 0.9 1.7 0.00 0.01 0.01 95 1006.1
20260506203203 60 43 0.9 0.9 0.00 0.01 0.01 95 1005.7
20260506202702 60 25 0.0 0.0 0.00 0.01 0.01 94 1005.7
20260506202157 60 80 1.7 2.6 0.00 0.01 0.01 94 1005.8
20260506201654 60 18 1.7 2.6 0.00 0.01 0.01 94 1005.7
20260506201150 60 67 0.9 0.9 0.00 0.01 0.01 94 1005.8
20260506200648 60 125 1.7 2.6 0.00 0.01 0.01 93 1005.9
20260506200144 60 295 3.5 4.3 0.00 0.01 0.01 93 1006.1
20260506195641 60 207 2.6 4.3 0.00 0.01 0.01 93 1005.8
20260506195137 61 167 1.7 2.6 0.00 0.01 0.01 92 1005.8
20260506194635 61 351 0.9 0.9 0.00 0.01 0.01 92 1005.6
20260506194131 61 57 0.9 1.7 0.07 0.01 0.01 91 1006.1
20260506193629 61 108 0.9 1.7 0.07 0.01 0.01 90 1005.9
20260506193126 62 61 0.9 0.9 0.00 0.00 0.00 89 1006.2
20260506192622 62 80 1.7 1.7 0.00 0.00 0.00 87 1006.1
20260506192118 62 56 0.9 0.9 0.00 0.00 0.00 85 1006.2
20260506191615 63 215 0.9 1.7 0.00 0.00 0.00 85 1006.2
20260506191111 63 11 2.6 2.6 0.00 0.00 0.00 83 1006.2
20260506190609 64 82 0.9 1.7 0.00 0.00 0.00 83 1006.3
20260506190105 64 70 1.7 1.7 0.00 0.00 0.00 80 1006.3
20260506185603 64 72 1.7 1.7 0.00 0.00 0.00 78 1006.2
20260506185059 64 55 2.6 6.1 0.00 0.00 0.00 77 1006.5
20260506184556 65 82 1.7 2.6 0.00 0.00 0.00 77 1006.3
20260506184054 65 11 2.6 4.3 0.00 0.00 0.00 76 1006.2
20260506183549 65 108 1.7 1.7 0.00 0.00 0.00 75 1006.3
20260506183046 65 193 0.9 1.7 0.00 0.00 0.00 76 1006.5
20260506182544 66 307 3.5 5.2 0.00 0.00 0.00 74 1006.6
20260506182041 66 231 2.6 2.6 0.00 0.00 0.00 74 1006.5
20260506181539 66 77 0.9 0.9 0.00 0.00 0.00 73 1006.4
20260506181035 66 70 0.9 0.9 0.00 0.00 0.00 74 1006.6
20260506180532 67 212 2.6 2.6 0.00 0.00 0.00 72 1006.2
20260506180028 67 322 0.9 1.7 0.00 0.00 0.00 72 1006.6
20260506175525 67 331 1.7 1.7 0.00 0.00 0.00 72 1006.6
20260506175021 68 136 1.7 2.6 0.00 0.00 0.00 71 1006.7
20260506174520 68 7 2.6 2.6 0.00 0.00 0.00 70 1006.6
20260506174016 69 16 2.6 4.3 0.00 0.00 0.00 70 1006.7
20260506173514 69 102 2.6 5.2 0.00 0.00 0.00 69 1006.9
20260506173010 69 48 1.7 1.7 0.00 0.00 0.00 68 1006.8
20260506172508 69 273 1.7 2.6 0.00 0.00 0.00 69 1007.0
20260506172004 70 52 3.5 4.3 0.00 0.00 0.00 67 1006.9
20260506171501 71 246 1.7 2.6 0.00 0.00 0.00 66 1007.1
20260506170959 70 264 2.6 4.3 0.00 0.00 0.00 68 1006.9
20260506170455 70 72 2.6 4.3 0.00 0.00 0.00 67 1006.8
20260506165948 71 106 2.6 2.6 0.00 0.00 0.00 64 1006.8
20260506165447 72 20 2.6 4.3 0.00 0.00 0.00 65 1006.8
20260506164942 72 304 2.6 4.3 0.00 0.00 0.00 63 1006.8
20260506164439 71 173 2.6 4.3 0.00 0.00 0.00 66 1007.0
20260506163937 71 83 3.5 4.3 0.00 0.00 0.00 66 1007.2
20260506163431 71 64 1.7 2.6 0.00 0.00 0.00 66 1007.4
20260506162926 71 10 0.9 1.7 0.00 0.00 0.00 66 1007.3
20260506162424 71 271 3.5 5.2 0.00 0.00 0.00 66 1007.6
20260506161921 71 101 2.6 4.3 0.00 0.00 0.00 64 1007.5
20260506161420 71 287 0.9 1.7 0.00 0.00 0.00 67 1007.4
20260506160911 71 166 2.6 4.3 0.00 0.00 0.00 65 1007.6
20260506160408 71 38 0.9 0.9 0.00 0.00 0.00 66 1007.7
20260506155906 71 85 2.6 4.3 0.00 0.00 0.00 66 1007.6
20260506155403 72 351 0.9 0.9 0.00 0.00 0.00 66 1007.7
20260506153525 72 62 2.6 2.6 0.00 0.00 0.00 65 1007.7
20260506153023 73 116 0.9 0.9 0.00 0.00 0.00 66 1007.9
20260506152519 72 359 1.7 2.6 0.00 0.00 0.00 64 1008.0
20260506152018 72 56 0.9 0.9 0.00 0.00 0.00 67 1008.0
20260506151515 72 220 3.5 6.1 0.00 0.00 0.00 64 1008.2
20260506151012 71 311 1.7 2.6 0.00 0.00 0.00 65 1008.2
20260506150508 71 125 3.5 5.2 0.00 0.00 0.00 67 1008.3
20260506150005 70 202 4.3 5.2 0.00 0.00 0.00 67 1008.2
20260506145502 71 76 0.9 1.7 0.00 0.00 0.00 68 1008.3
20260506144959 70 331 0.9 0.9 0.00 0.00 0.00 67 1008.2
20260506144456 70 240 1.7 1.7 0.00 0.00 0.00 70 1008.1
20260506143954 70 91 0.9 1.7 0.00 0.00 0.00 67 1008.2
20260506143451 70 65 0.9 1.7 0.00 0.00 0.00 68 1008.0
20260506142949 70 90 2.6 2.6 0.00 0.00 0.00 67 1008.2
20260506142446 70 203 2.6 2.6 0.00 0.00 0.00 68 1007.9
20260506141944 70 48 0.9 1.7 0.00 0.00 0.00 67 1007.8
20260506141442 71 65 1.7 1.7 0.00 0.00 0.00 66 1008.0
20260506140941 71 160 2.6 2.6 0.00 0.00 0.00 65 1008.2
20260506140437 71 115 0.0 0.9 0.00 0.00 0.00 66 1008.1
20260506135934 71 94 2.6 4.3 0.00 0.00 0.00 65 1008.0
20260506135431 70 83 2.6 2.6 0.00 0.00 0.00 67 1008.0
20260506134927 70 330 1.7 2.6 0.00 0.00 0.00 67 1007.8
20260506134423 69 65 0.9 1.7 0.00 0.00 0.00 68 1008.0
20260506133920 69 129 2.6 4.3 0.00 0.00 0.00 68 1008.1
20260506133417 70 10 1.7 1.7 0.00 0.00 0.00 67 1008.3
20260506132914 70 101 4.3 6.1 0.00 0.00 0.00 69 1008.6
20260506132411 70 24 0.0 0.9 0.00 0.00 0.00 72 1008.5
20260506131909 69 200 0.9 1.7 0.00 0.00 0.00 71 1008.7
20260506131405 68 255 2.6 4.3 0.00 0.00 0.00 71 1008.7
20260506130902 68 279 0.9 1.7 0.00 0.00 0.00 74 1008.8
20260506130358 66 60 0.0 0.9 0.00 0.00 0.00 75 1008.7
20260506125856 67 315 0.9 1.7 0.00 0.00 0.00 75 1008.7
20260506125355 67 71 0.9 1.7 0.00 0.00 0.00 76 1008.7
20260506124853 65 87 1.7 1.7 0.00 0.00 0.00 77 1008.8
20260506124349 65 244 3.5 6.1 0.00 0.00 0.00 77 1008.8
20260506123847 64 28 1.7 1.7 0.00 0.00 0.00 79 1008.7
20260506123345 64 32 0.0 0.0 0.00 0.00 0.00 81 1008.8
20260506122842 64 90 1.7 1.7 0.00 0.00 0.00 80 1008.8
20260506122339 64 237 1.7 1.7 0.00 0.00 0.00 80 1008.8
20260506121837 64 216 1.7 1.7 0.00 0.00 0.00 80 1008.8
20260506121334 64 91 1.7 2.6 0.00 0.00 0.00 79 1008.6
20260506120831 64 201 0.9 0.9 0.00 0.00 0.00 81 1008.8
20260506120329 63 64 1.7 1.7 0.00 0.00 0.00 82 1008.8
20260506115826 62 88 0.9 1.7 0.00 0.00 0.00 82 1009.2
20260506115324 61 76 0.9 0.9 0.00 0.00 0.00 84 1009.2
20260506114822 60 42 0.0 0.0 0.00 0.00 0.00 87 1009.3
20260506114319 60 75 0.9 0.9 0.00 0.00 0.00 87 1009.5
20260506113818 61 291 1.7 2.6 0.00 0.00 0.00 86 1009.2
20260506113315 61 286 2.6 4.3 0.00 0.00 0.00 85 1009.3
20260506112811 61 73 0.9 0.9 0.00 0.00 0.00 85 1009.5
20260506112309 61 100 1.7 1.7 0.00 0.00 0.00 85 1009.2
20260506111806 61 88 1.7 1.7 0.00 0.00 0.00 85 1009.4
20260506111304 60 92 0.9 0.9 0.00 0.00 0.00 87 1009.4
20260506110801 59 48 0.0 0.9 0.00 0.00 0.00 89 1009.2
20260506110258 58 246 1.7 2.6 0.00 0.00 0.00 91 1009.3
20260506105755 58 78 0.0 0.9 0.00 0.00 0.00 92 1009.3
20260506105252 57 72 0.0 0.9 0.00 0.00 0.00 92 1009.3
20260506104749 57 331 0.0 0.9 0.00 0.00 0.00 92 1009.2
20260506104247 57 54 0.9 0.9 0.00 0.00 0.00 92 1009.3
20260506103744 57 79 0.9 0.9 0.00 0.00 0.00 92 1009.2
20260506103241 57 60 0.0 0.0 0.00 0.00 0.00 92 1009.3
20260506102739 57 18 0.0 0.0 0.00 0.00 0.00 93 1009.1
20260506102237 57 38 0.0 0.0 0.00 0.00 0.00 93 1009.1
20260506101733 57 31 0.0 0.9 0.00 0.00 0.00 93 1009.2
20260506101230 57 90 0.0 0.0 0.00 0.00 0.00 93 1009.3
20260506100728 57 42 0.0 0.9 0.00 0.00 0.00 92 1009.1
20260506100226 57 69 0.0 0.9 0.00 0.00 0.00 92 1009.0
20260506095724 57 99 0.9 1.7 0.00 0.00 0.00 91 1009.1
20260506095220 57 40 0.0 0.0 0.00 0.00 0.00 91 1008.9
20260506094717 58 140 0.9 0.9 0.00 0.00 0.00 90 1008.9
20260506094215 58 37 0.9 0.9 0.00 0.00 0.00 90 1009.0
20260506093714 58 113 1.7 1.7 0.00 0.00 0.00 90 1008.7
20260506093210 58 76 0.0 0.9 0.00 0.00 0.00 89 1008.8
20260506092709 58 29 0.0 0.0 0.00 0.00 0.00 89 1008.9
20260506092206 58 127 0.9 0.9 0.00 0.00 0.00 89 1008.8
20260506091704 58 42 0.0 0.0 0.00 0.00 0.00 89 1008.9
20260506091201 58 100 0.9 1.7 0.00 0.00 0.00 89 1009.0
20260506090658 58 326 0.9 0.9 0.00 0.00 0.00 88 1008.9
20260506090154 59 316 1.7 1.7 0.00 0.00 0.00 88 1009.1
20260506085652 59 21 0.9 0.9 0.00 0.00 0.00 88 1009.0
20260506085148 59 178 0.0 0.9 0.00 0.00 0.00 88 1009.2
20260506084645 59 83 1.7 1.7 0.00 0.00 0.00 88 1009.2
20260506084141 59 8 0.0 0.0 0.00 0.00 0.00 87 1008.9
20260506083638 59 18 4.3 6.1 0.00 0.00 0.00 86 1009.2
20260506083136 59 88 0.9 0.9 0.00 0.00 0.00 87 1009.3
20260506082633 59 51 0.9 0.9 0.00 0.00 0.00 86 1009.0
20260506082128 60 237 1.7 2.6 0.00 0.00 0.00 85 1009.1
20260506081626 60 49 0.0 0.0 0.00 0.00 0.00 85 1009.0
20260506081124 60 131 1.7 1.7 0.00 0.00 0.00 85 1009.2
20260506080622 60 267 1.7 2.6 0.00 0.00 0.00 85 1009.2
20260506080118 60 350 0.9 0.9 0.00 0.00 0.00 84 1009.1
20260506073102 60 70 0.9 0.9 0.00 0.00 0.00 83 1009.1
20260506072558 61 213 2.6 2.6 0.00 0.00 0.00 83 1009.0
20260506072056 61 4 1.7 1.7 0.00 0.00 0.00 83 1008.9
20260506071554 60 27 0.9 0.9 0.00 0.00 0.00 83 1008.9
20260506071051 60 84 0.9 1.7 0.00 0.00 0.00 83 1009.0
20260506070548 60 206 1.7 1.7 0.00 0.00 0.00 83 1009.1
20260506062022 60 73 1.7 1.7 0.00 0.00 0.00 82 1008.8
20260506061518 60 106 1.7 2.6 0.00 0.00 0.00 82 1008.9
20260506061016 60 297 5.2 7.8 0.00 0.00 0.00 81 1008.7
20260506060514 61 86 1.7 1.7 0.00 0.00 0.00 81 1008.8
20260506050943 61 56 0.9 0.9 0.00 0.00 0.00 78 1009.5
20260506050441 61 92 0.0 0.9 0.00 0.00 0.00 78 1009.5
20260506044931 61 94 0.0 0.9 0.00 0.00 0.00 77 1009.7
20260506044430 61 67 0.9 1.7 0.00 0.00 0.00 77 1009.7
20260506043926 61 121 0.9 1.7 0.00 0.00 0.00 77 1009.6
20260506043423 61 269 1.7 1.7 0.00 0.00 0.00 76 1009.6
20260506042921 61 280 1.7 1.7 0.00 0.00 0.00 76 1009.4
20260506042420 61 232 2.6 2.6 0.00 0.00 0.00 75 1009.7
20260506041918 61 105 0.9 1.7 0.00 0.00 0.00 76 1009.5
20260506041415 61 88 0.9 0.9 0.00 0.00 0.00 75 1009.5
20260506040912 61 92 1.7 2.6 0.00 0.00 0.00 75 1009.6
20260506040410 61 74 0.9 1.7 0.00 0.00 0.00 74 1009.6
20260506035905 61 253 0.9 1.7 0.00 0.00 0.00 73 1009.6
20260506035403 62 99 0.9 0.9 0.00 0.00 0.00 73 1009.6
20260506034900 62 162 0.9 0.9 0.00 0.00 0.00 73 1009.4
20260506034358 62 91 0.9 0.9 0.00 0.00 0.00 73 1009.5
20260506033854 62 95 1.7 1.7 0.00 0.00 0.00 73 1009.3
20260506033351 62 35 0.9 0.9 0.00 0.00 0.00 72 1009.4
20260506032848 62 18 1.7 4.3 0.00 0.00 0.00 72 1009.4
20260506032345 62 72 0.9 1.7 0.00 0.00 0.00 71 1009.5
20260506031842 62 217 1.7 1.7 0.00 0.00 0.00 70 1009.4
20260506031339 63 96 2.6 4.3 0.00 0.00 0.00 70 1009.5
20260506030837 62 94 0.9 1.7 0.00 0.00 0.00 70 1009.1
20260506030335 62 79 1.7 2.6 0.00 0.00 0.00 70 1009.2
20260506025831 63 89 0.0 0.9 0.00 0.00 0.00 70 1009.1
20260506025327 62 100 0.9 1.7 0.00 0.00 0.00 70 1009.3
20260506024825 62 108 0.9 1.7 0.00 0.00 0.00 71 1009.2
20260506024321 62 97 0.9 0.9 0.00 0.00 0.00 70 1009.2
20260506023818 62 134 1.7 1.7 0.00 0.00 0.00 70 1009.2
20260506023315 62 81 2.6 4.3 0.00 0.00 0.00 69 1009.2
20260506022811 62 108 2.6 2.6 0.00 0.00 0.00 70 1009.2
20260506022309 63 98 2.6 2.6 0.00 0.00 0.00 69 1009.4
20260506021807 63 61 2.6 2.6 0.00 0.00 0.00 69 1009.3